Weather History for Norfolk, NE

Change the Weather History Date:

Tuesday, September 11, 2012

  Actual Average Record
Temperature  
Mean Temperature 82 °F 66 °F  
Max Temperature 99 °F 78 °F 104 °F (1895)
Min Temperature 64 °F 53 °F 29 °F (1940)
Degree Days  
Heating Degree Days 0 3  
Month to date heating degree days 8 21  
Since 1 July heating degree days 19 37  
Cooling Degree Days 17 4  
Month to date cooling degree days 96 53  
Year to date cooling degree days 1363 869  
Growing Degree Days 32 (Base 50)    
Moisture  
Dew Point 44 °F    
Average Humidity 31    
Maximum Humidity 45    
Minimum Humidity 16    
Precipitation  
Precipitation 0.00 in 0.09 in 3.75 in (1900)
Month to date precipitation 0.05 1.00  
Year to date precipitation 11.89 21.53  
Snow  
Snow 0.00 in 0.00 in - ()
Month to date snowfall 0.0 0.0  
Since 1 July snowfall 0.0 0.0  
Snow Depth 0.00 in    
Sea Level Pressure  
Sea Level Pressure 29.77 in    
Wind  
Wind Speed 16 mph (South)    
Max Wind Speed 28 mph    
Max Gust Speed 37 mph    
Visibility 10 miles    
Events      
T = Trace of Precipitation, MM = Missing Value Source: NWS Daily Summary

Daily Weather History Graph

Daily Weather History Graph

Search for Another Location

Airport:

Trip Planner

Search our weather history database for the weather conditions in past years. The results will help you decide how hot, cold, wet, or windy it might be!

Date:

Astronomy

Sep. 11, 2012 Rise Set
Actual Time 7:06 AM CDT 7:45 PM CDT
Civil Twilight 6:38 AM CDT 8:13 PM CDT
Nautical Twilight 6:04 AM CDT 8:46 PM CDT
Astronomical Twilight 5:30 AM CDT 9:20 PM CDT
Moon 2:21 AM CDT (9/11) 4:59 PM CDT (9/11)
Length of Visible Light 13h 35m
Length of Day
12h 39m
Waning Crescent, 21% of the Moon is Illuminated
Sep 11
Waning Crescent
Sep 15
New
Sep 22
First Quarter
Sep 29
Full
Oct 8
Last Quarter

Hourly Weather History & Observations

Time (CDT) Temp. Dew Point Humidity Pressure Visibility Wind Dir Wind Speed Gust Speed Precip Events Conditions
12:56 AM 69.1 °F 45.0 °F 42% 29.80 in 10.0 mi SSE 6.9 mph - N/A   Clear
1:56 AM 70.0 °F 45.0 °F 41% 29.79 in 10.0 mi South 9.2 mph - N/A   Clear
2:56 AM 68.0 °F 44.1 °F 42% 29.78 in 10.0 mi South 6.9 mph - N/A   Clear
3:56 AM 66.0 °F 43.0 °F 43% 29.78 in 10.0 mi South 8.1 mph - N/A   Clear
4:56 AM 66.0 °F 44.1 °F 45% 29.78 in 10.0 mi South 5.8 mph - N/A   Clear
5:56 AM 64.0 °F 43.0 °F 46% 29.80 in 10.0 mi South 9.2 mph 18.4 mph N/A   Clear
6:56 AM 64.9 °F 42.1 °F 43% 29.79 in 10.0 mi South 16.1 mph 25.3 mph N/A   Clear
7:56 AM 64.9 °F 42.1 °F 43% 29.81 in 10.0 mi South 13.8 mph - N/A   Clear
8:56 AM 69.1 °F 43.0 °F 39% 29.79 in 10.0 mi South 19.6 mph 26.5 mph N/A   Clear
9:56 AM 75.9 °F 42.1 °F 30% 29.79 in 10.0 mi SSW 20.7 mph 26.5 mph N/A   Clear
10:56 AM 81.0 °F 42.1 °F 25% 29.79 in 10.0 mi SSW 23.0 mph 28.8 mph N/A   Clear
11:56 AM 82.9 °F 43.0 °F 24% 29.79 in 10.0 mi SSW 17.3 mph 27.6 mph N/A   Clear
12:56 PM 90.0 °F 44.1 °F 20% 29.77 in - South 20.7 mph 27.6 mph N/A   Unknown
1:56 PM 90.0 °F 44.1 °F 20% 29.75 in 10.0 mi South 21.9 mph 28.8 mph N/A   Clear
2:56 PM 95.0 °F 44.1 °F 17% 29.74 in 10.0 mi South 23.0 mph 31.1 mph N/A   Clear
3:56 PM 99.0 °F 44.1 °F 15% 29.71 in 10.0 mi SSW 19.6 mph 28.8 mph N/A   Clear
4:56 PM 96.1 °F 44.1 °F 17% 29.71 in 10.0 mi South 20.7 mph 35.7 mph N/A   Clear
5:56 PM 95.0 °F 45.0 °F 18% 29.71 in 10.0 mi South 25.3 mph 32.2 mph N/A   Clear
6:56 PM 91.0 °F 45.0 °F 20% 29.73 in 10.0 mi South 18.4 mph 26.5 mph N/A   Clear
7:56 PM 88.0 °F 45.0 °F 22% 29.74 in 10.0 mi South 20.7 mph 32.2 mph N/A   Clear
8:56 PM 84.0 °F 46.0 °F 26% 29.77 in 10.0 mi South 13.8 mph - N/A   Clear
9:56 PM 80.1 °F 46.9 °F 31% 29.79 in 10.0 mi SSE 11.5 mph - N/A   Clear
10:56 PM 80.1 °F 46.0 °F 30% 29.79 in 10.0 mi South 13.8 mph - N/A   Clear
11:56 PM 80.1 °F 45.0 °F 29% 29.79 in 10.0 mi South 16.1 mph 24.2 mph N/A   Clear